Menu       Accueil   X °F

Sélectionnez une autre période ( cacher cette zone )

Les unités Période Gamme personnalisée Directement à
métriques impériales les deux
par jour par semaine mensuel annuel
utiliser les deux sélecteurs de date pour une gamme personnalisée
précédente Jour
Avec cette date
par jour Résumé pour Vendredi 14 juin 2024
Temps Temp. ( °F ) Pt. de rosée ( °F ) Vent ( mph ) De Rafale ( mph ) Pression baro ( in ) Humid.( % ) Débit de pluie ( in )
Élevé57.6 53.1 3.7 ESE ( 55/138 ) 6.8 29.86 86 -
Moyenne56.8 52.2 1.0 calme #40/86 2.7 29.78 84 -
Basse55.8 51.1 -   0.0 29.72 82 -
par jour Détails du tableau pour Vendredi 14 juin 2024
Temps Temp. ( °F ) Pt. de rosée ( °F ) Vent ( mph ) De Rafale ( mph ) Pression baro ( in ) Humid.( % ) Débit de pluie ( in )
00:01 55.9 51.1   calme   29.86 82 -
00:06 55.8 51.1   calme   29.85 83 -
00:11 55.8 51.1   calme   29.85 83 -
00:16 55.9 51.1   calme   29.85 83 -
00:21 55.8 51.1   calme   29.85 84 -
00:26 55.8 51.1   calme   29.85 84 -
00:31 55.8 51.1   calme   29.84 84 -
00:36 55.8 51.1 1.2 NO 1.2 29.84 84 -
00:41 55.9 52.0   calme 1.2 29.84 85 -
00:46 55.9 52.0   calme 1.2 29.84 85 -
00:51 55.9 52.0   calme 1.2 29.84 85 -
00:56 55.9 52.0   calme 1.9 29.83 85 -
01:01 55.9 51.6   calme 3.1 29.83 85 -
01:06 55.9 51.1 1.9 NNE 3.7 29.82 84 -
01:10 56.1 51.4   calme   29.82 84 -
01:16 56.5 52.0   calme 1.9 29.82 84 -
01:21 56.5 52.0 1.2 North 1.9 29.82 84 -
01:26 56.5 52.0 1.2 ENE 3.1 29.81 84 -
01:31 56.7 52.0   calme 3.1 29.81 84 -
01:36 56.8 52.0   calme 1.9 29.81 84 -
01:41 57.0 52.2 1.2 NNE 1.9 29.81 84 -
01:46 57.0 52.0   calme 3.1 29.81 84 -
01:51 57.0 52.2   calme 1.9 29.81 84 -
01:56 57.0 52.0   calme 1.2 29.80 84 -
02:01 57.0 52.2   calme 1.9 29.80 84 -
02:06 57.0 52.0   calme 1.9 29.80 84 -
02:11 57.0 52.2 1.2 NNE 1.2 29.81 84 -
02:16 57.0 53.1   calme 1.9 29.80 85 -
02:21 57.0 52.3   calme 1.9 29.80 85 -
02:26 57.0 52.0   calme 1.9 29.80 84 -
02:31 57.0 52.2 1.2 SO 1.9 29.80 84 -
02:36 57.0 52.0   calme 1.9 29.79 84 -
02:41 57.0 52.3   calme 1.9 29.79 84 -
02:46 57.0 52.0   calme 1.9 29.79 84 -
02:51 57.0 52.3   calme 1.2 29.79 84 -
02:56 57.2 52.0   calme 1.2 29.79 84 -
03:01 57.4 53.1 1.9 ESE 3.1 29.79 85 -
03:06 57.2 52.0   calme 3.1 29.78 84 -
03:11 57.2 53.1   calme 1.9 29.78 85 -
03:16 57.2 53.1   calme 1.2 29.78 85 -
03:21 57.0 53.1   calme 1.2 29.78 85 -
03:26 57.0 53.1   calme 1.2 29.78 85 -
03:31 57.0 53.1   calme 1.2 29.78 85 -
03:36 56.8 53.1   calme 1.9 29.77 85 -
03:41 57.0 53.1   calme 1.9 29.77 85 -
03:46 56.8 53.1   calme 1.9 29.77 85 -
03:51 56.8 53.1 1.2 Sud 1.9 29.77 86 -
03:56 56.8 53.1 3.1 ESE 3.1 29.77 86 -
04:06 56.7 53.1   calme 3.7 29.77 86 -
04:11 56.8 52.3 1.9 Est 3.7 29.77 85 -
04:16 57.0 53.1   calme 3.7 29.76 85 -
04:20 57.4 52.5 1.2 Est 1.9 29.76 84 -
04:26 57.4 52.0 3.7 SO 3.1 29.76 83 -
04:31 57.6 52.3 1.9 ENE 6.2 29.76 83 -
04:36 57.6 52.0 1.9 ESE 3.7 29.76 82 -
04:41 57.6 52.0 1.2 ESE 3.7 29.75 82 -
04:46 57.6 52.0 3.1 SSO 5.0 29.75 82 -
04:51 57.6 52.2 1.9 ESE 6.2 29.75 82 -
04:56 57.6 53.1 1.9 ESE 3.7 29.75 83 -
05:01 57.6 52.3 1.9 ESE 3.7 29.75 83 -
05:06 57.4 52.0 1.2 ESE 3.7 29.75 83 -
05:11 57.4 52.3 1.2 SE 3.7 29.75 83 -
05:16 57.4 52.0 1.2 ESE 3.7 29.75 83 -
05:21 57.4 52.5 1.9 ESE 3.7 29.74 84 -
05:26 57.0 52.0 1.9 Sud 3.7 29.75 83 -
05:31 57.0 52.2 1.2 SSE 3.7 29.74 84 -
05:36 57.0 52.0 1.2 SE 3.1 29.74 84 -
05:41 56.8 52.2 1.2 Sud 3.7 29.74 84 -
05:46 56.8 52.0 1.9 ESE 3.7 29.74 84 -
05:51 56.7 52.0 1.9 SE 3.7 29.74 85 -
05:56 56.7 52.0 1.9 ESE 3.7 29.74 85 -
06:01 56.7 52.2 1.9 ESE 3.7 29.74 85 -
06:06 56.7 52.0 1.9 ESE 3.7 29.73 85 -
06:11 56.7 52.0 1.9 SE 3.1 29.73 85 -
06:16 56.7 52.0 1.2 Sud 3.1 29.73 85 -
06:21 56.5 52.0 1.9 SE 5.0 29.73 86 -
06:26 56.5 52.0 1.9 ESE 5.0 29.73 86 -
06:31 56.7 52.5 3.7 ESE 3.7 29.73 86 -
06:36 56.7 53.1 3.1 SE 3.7 29.73 86 -
06:41 56.7 53.1 1.9 SE 3.7 29.73 86 -
06:46 56.7 53.1 1.9 SE 3.7 29.73 86 -
06:51 56.7 53.1 3.1 ESE 5.0 29.73 86 -
06:56 56.7 52.0 1.9 SSE 5.0 29.72 85 -
07:01 56.8 52.3 1.9 SSE 6.2 29.72 85 -
07:06 56.8 52.0 3.1 SE 6.8 29.72 85 -
07:11 56.8 52.3 1.9 SE 3.7 29.72 85 -

Téléchargez votre copie de cet ensemble de données  à partir de WeatherUnderground

Nos données météo stockées sur Weather Underground